Other Public Products
Issued by NWS Charleston, SC

Current Version | Previous Version | Graphics & Text | Print | Product List | Glossary On
Versions: 1 2 3 4 5 6 7 8 9 10 11 12 13 14 15 16 17 18 19 20 21 22 23 24 25 26 27 28 29 30 31 32 33 34 35 36 37 38 39 40 41 42 43 44 45 46 47 48 49 50
023
FPUS82 KCHS 240212
OPUCHS

TEST...KCHS/KSAV Gateway Observations...TEST
National Weather Service Charleston SC
1000 PM EDT WED MAY 23 2018

NOTE: "fair" indicates few or no clouds below 12,000 feet with no
significant weather and/or obstructions to visibility.

SCZ050-WAZ558-NCZ071-TXZ119-213-PAZ071-DCZ001-FLZ074-172-MI076-
NYZ176-178-MAZ016-IL014-TNZ027-NJZ106-GAZ044-MD014-240300-

...Gateway Observations for Charleston International...

CITY           SKY/WX    TMP DP  RH WIND       PRES   REMARKS
Chas Airport   FAIR      74  69  85 S6        30.09R
Seattle        MOSUNNY   78  53  41 W6        29.79F
Charlotte      MOCLDY    75  70  84 S6        30.07R
Dallas DFW     PTCLDY    82  65  56 SE9       29.98R
Dallas Love    PTCLDY    86  65  49 SE12      29.98R
Philladelphia  FAIR      73  53  49 W7        30.04R
Wash National  MOCLDY    73  56  54 NW10      30.08R
Baltimore      FAIR      66  58  75 CALM      30.07R
Miami          FAIR      79  73  82 E10       30.07S
Detroit        MOCLDY    68  51  54 SE3       30.17R
Newark         FAIR      75  50  41 W10       29.99R
Laguardia      FAIR      78  49  35 NW16      29.98R
J F K          FAIR      76  51  41 W10       29.99R
Boston Logan   MOCLDY    69  54  58 N3        29.96R
Ft. Lauderdale FAIR      79  75  87 SE10      30.07R
Chicago O`Hare FAIR      68  47  46 E8        30.16R
Chicago Midway FAIR      65  53  65 E7        30.17R
Houston Bush   MOCLDY    76  71  85 E8        30.01R
Houston Hobby  MOCLDY    77  74  90 E5        30.00R
Nashville      MOCLDY    79  62  56 N5        30.09R
Atlanta        MOCLDY    75  69  81 E6        30.07R

$$

GAZ044-118-TXZ119-213-NCZ071-DCZ001-MDZ014-506-PAZ021-071-NJZ106-
NYZ176-178-MAZ106-OHZ011-021-055-MIZ076-KYZ091-ILZ014-INZ047-
MNZ060-ONZ431-240300-

...Gateway Observations for Savannah International...

CITY           SKY/WX    TMP DP  RH WIND       PRES   REMARKS
Savannah Arpt  MOCLDY    76  70  82 S7        30.08S
Atlanta        MOCLDY    75  69  81 E6        30.07R
Charlotte      MOCLDY    75  70  84 S6        30.07R
Dallas DFW     PTCLDY    82  65  56 SE9       29.98R
Houston Bush   MOCLDY    76  71  85 E8        30.01R
Wash National  MOCLDY    73  56  54 NW10      30.08R
Wash Dulles    FAIR      68  58  70 NW5       30.10R
Baltimore      FAIR      66  58  75 CALM      30.07R
Philadelphia   FAIR      73  53  49 W7        30.04R
Newark         FAIR      75  50  41 W10       29.99R
Laguardia      FAIR      78  49  35 NW16      29.98R
J F K          FAIR      76  51  41 W10       29.99R
Boston         MOCLDY    69  54  58 N3        29.96R
Pittsburg      FAIR      68  50  52 N3        30.16R
Akron          FAIR      62  44  51 N7        30.19R
Cleveland      FAIR      66  51  58 CALM      30.19R
Cincinnati     MOCLDY    71  55  56 E7        30.15R
Columbus       FAIR      65  53  66 MISG      30.16R
Detroit        MOCLDY    68  51  54 SE3       30.17R
Chicago O`Hare FAIR      68  47  46 E8        30.16R
Minneapolis    MOCLDY    80  62  54 SE7       30.05R
Indianapolis   FAIR      72  52  49 E7        30.15R
Toronto Canada PTCLDY    68  43  40 N9        30.12R

$$




USA.gov is the U.S. government's official web portal to all federal, state and local government web resources and services.